FW6834 Weather Reports


time (UTC)temp
F
wind
direction
speed
knots
gust
knots
rain 1hr
in
rain 24hr
in
rain mn
in
humidity
%
barometer
mb
20260831195101 105 135 7.8 8.7 0.00 0.00 0.00 25 1054.9
20260831192102 105 204 3.5 9.6 0.00 0.00 0.00 25 1055.2
20260831191102 105 110 4.3 7.8 0.00 0.00 0.00 25 1055.2
20260831185603 103 120 3.5 8.7 0.00 0.00 0.00 27 1055.5
20260831184103 103 180 6.1 7.0 0.00 0.00 0.00 27 1055.5
20260831182602 102 251 5.2 7.8 0.00 0.00 0.00 28 1055.9
20260831181102 102 89 2.6 9.6 0.00 0.00 0.00 29 1055.9
20260831175603 102 182 3.5 7.8 0.00 0.00 0.00 29 1055.9
20260831174602 102 192 7.8 9.6 0.00 0.00 0.00 31 1056.2
20260831164602 99 32 7.0 10.4 0.00 0.00 0.00 35 1056.6
20260831163102 98 208 7.8 7.8 0.00 0.00 0.00 35 1056.6
20260831161602 98 179 5.2 9.6 0.00 0.00 0.00 36 1056.6
20260831154602 96 289 6.1 12.2 0.00 0.00 0.00 38 1056.6
20260831153105 96 211 6.1 9.6 0.00 0.00 0.00 39 1056.6
20260831151601 94 199 2.6 11.3 0.00 0.00 0.00 40 1056.9
20260831145102 93 256 6.1 8.7 0.00 0.00 0.00 42 1056.9
20260831143602 92 169 8.7 11.3 0.00 0.00 0.00 43 1056.9
20260831142102 90 207 4.3 9.6 0.00 0.00 0.00 45 1056.9
20260831140602 89 196 1.7 7.0 0.00 0.00 0.00 46 1056.9
20260831135101 88 153 6.1 7.0 0.00 0.00 0.00 47 1056.9
20260831133602 86 198 4.3 5.2 0.00 0.00 0.00 48 1056.6
20260831132102 85 230 5.2 7.0 0.00 0.00 0.00 50 1056.6
20260831130602 83 183 2.6 7.0 0.00 0.00 0.00 51 1056.6
20260831125102 82 182 2.6 5.2 0.00 0.00 0.00 52 1056.2
20260831123602 80 152 1.7 6.1 0.00 0.00 0.00 55 1055.9
20260831122601 80 202 4.3 5.2 0.00 0.00 0.00 53 1055.9
20260831121102 80 178 1.7 5.2 0.00 0.00 0.00 53 1055.5
20260831115603 80 154 2.6 6.1 0.00 0.00 0.00 53 1055.5
20260831114102 80 195 2.6 4.3 0.00 0.00 0.00 52 1055.2
20260831113101 80 192 2.6 3.5 0.00 0.00 0.00 52 1055.2
20260831104602 81 222 2.6 6.1 0.00 0.00 0.00 50 1054.5
20260831103601 81 167 2.6 7.0 0.00 0.00 0.00 50 1054.5
20260831102102 82 115 1.7 6.1 0.00 0.00 0.00 49 1054.5
20260831100602 82 143 2.6 7.0 0.00 0.00 0.00 48 1054.5
20260831095102 83 212 3.5 7.0 0.00 0.00 0.00 47 1054.2
20260831092102 84 170 2.6 9.6 0.00 0.00 0.00 46 1054.2
20260831090602 84 86 5.2 8.7 0.00 0.00 0.00 45 1054.2
20260831085102 84 256 10.4 11.3 0.00 0.00 0.00 45 1053.8
20260831083602 85 239 7.0 8.7 0.00 0.00 0.00 45 1054.2
20260831082104 85 158 5.2 11.3 0.00 0.00 0.00 44 1054.2
20260831081102 86 202 6.1 10.4 0.00 0.00 0.00 44 1054.2
20260831075602 86 178 5.2 9.6 0.00 0.00 0.00 43 1054.2
20260831072601 86 143 2.6 6.1 0.00 0.00 0.00 42 1053.8
20260831071102 86 141 2.6 7.0 0.00 0.00 0.00 41 1053.8
20260831065602 87 128 3.5 8.7 0.00 0.00 0.00 40 1053.8
20260831064104 87 164 7.0 8.7 0.00 0.00 0.00 40 1053.8
20260831063101 87 204 2.6 9.6 0.00 0.00 0.00 40 1053.8
20260831061602 88 174 4.3 8.7 0.00 0.00 0.00 39 1053.8
20260831054602 88 167 6.1 7.0 0.00 0.00 0.00 39 1053.8
20260831053102 88 213 4.3 12.2 0.00 0.00 0.00 39 1053.5
20260831051602 88 155 7.8 7.8 0.00 0.00 0.00 40 1053.5
20260831044602 89 178 6.1 10.4 0.00 0.00 0.00 40 1053.5
20260831043102 89 184 6.1 8.7 0.00 0.00 0.00 40 1053.5
20260831041601 89 198 6.1 7.8 0.00 0.00 0.00 39 1053.5
20260831035101 90 191 2.6 7.8 0.00 0.00 0.00 38 1053.5
20260831033602 91 173 7.0 8.7 0.00 0.00 0.00 37 1053.5
20260831030602 92 147 6.1 8.7 0.00 0.00 0.00 37 1053.2
20260831025102 92 177 7.8 9.6 0.00 0.00 0.00 37 1053.2
20260831024102 92 195 4.3 8.7 0.00 0.00 0.00 36 1052.8
20260831022602 93 227 6.1 10.4 0.00 0.00 0.00 35 1052.5
20260831021102 93 165 11.3 11.3 0.00 0.00 0.00 34 1052.2
20260831015602 94 170 4.3 7.8 0.00 0.00 0.00 34 1052.2
20260831014102 95 124 3.5 7.8 0.00 0.00 0.00 33 1051.8
20260831012602 95 145 3.5 7.0 0.00 0.00 0.00 32 1051.8
20260831011202 96 165 2.6 7.0 0.00 0.00 0.00 31 1051.5
20260831004602 98 178 8.7 11.3 0.00 0.00 0.00 29 1051.5
20260831001603 100 218 9.6 9.6 0.00 0.00 0.00 28 1051.5
20260831000602 100 168 7.0 7.8 0.00 0.00 0.00 27 1051.5
20260830235102 101 182 5.2 12.2 0.00 0.00 0.00 27 1051.5
20260830233603 101 186 5.2 9.6 0.00 0.00 0.00 27 1051.5
20260830232602 102 176 6.1 11.3 0.00 0.00 0.00 26 1051.5
20260830231102 103 127 8.7 9.6 0.00 0.00 0.00 26 1051.5
20260830224102 103 194 2.6 8.7 0.00 0.00 0.00 25 1051.5
20260830222604 103 147 6.1 12.2 0.00 0.00 0.00 25 1051.5
20260830221102 104 194 9.6 9.6 0.00 0.00 0.00 25 1051.5
20260830215602 104 184 5.2 9.6 0.00 0.00 0.00 25 1051.5
20260830214102 104 126 8.7 11.3 0.00 0.00 0.00 25 1051.8
20260830212602 104 187 8.7 11.3 0.00 0.00 0.00 25 1051.8
20260830211102 104 223 8.7 9.6 0.00 0.00 0.00 25 1052.2
20260830205602 105 166 7.8 11.3 0.00 0.00 0.00 25 1052.5
20260830202601 106 207 6.1 9.6 0.00 0.00 0.00 25 1052.8
20260830201102 105 220 5.2 9.6 0.00 0.00 0.00 26 1052.8